Back to catalog

CZ-6A DEB

AlivePO
NORAD 60697·DEBRIS·🇨🇳 China

Launched Aug 6, 2024 from Taiyuan Satellite Launch Center

Loading…

Next Passes (next 24 hours)

TLE

FreshSource: Space-Track

Epoch: Sep 14, 2026, 10:43 UTC

1 60697U 24140DA  26257.44658045  .00000264  00000-0  12517-3 0  9998
2 60697  89.0221 267.6120 0059374 270.3576  89.0809 14.16007853108204

Track CZ-6A DEB in real time with AllMySat

Download on the App Store